F4DVI Weather Reports


time (UTC)temp
C
wind
direction
speed
KPH
gust
KPH
rain 1hr
cm
rain 24hr
cm
rain mn
cm
humidity
%
barometer
mb
20260510015823 16 203 8.0 9.7 0.00 0.00 0.00 69
20260510015323 16 223 4.8 14.5 0.00 0.00 0.00 69
20260510014823 16 240 6.4 12.9 0.00 0.00 0.00 69
20260510014323 16 222 11.3 14.5 0.00 0.00 0.00 69
20260510013823 16 219 4.8 9.7 0.00 0.00 0.00 69
20260510013323 16 217 0.0 9.7 0.00 0.00 0.00 69
20260510012823 16 216 8.0 8.0 0.00 0.00 0.00 70
20260510012323 16 253 1.6 8.0 0.00 0.00 0.00 70
20260510011823 16 257 4.8 6.4 0.00 0.00 0.00 70
20260510011323 16 205 0.0 9.7 0.00 0.00 0.00 70
20260510010823 16 244 9.7 9.7 0.00 0.00 0.00 70
20260510010323 16 217 0.0 11.3 0.00 0.00 0.00 70
20260510005823 16 189 4.8 11.3 0.00 0.00 0.00 71
20260510005323 15 199 0.0 9.7 0.00 0.00 0.00 71
20260510004823 15 227 1.6 8.0 0.00 0.00 0.00 71
20260510004323 15 210 0.0 4.8 0.00 0.00 0.00 72
20260510003823 15 123 3.2 8.0 0.00 0.00 0.00 72
20260510003323 15 206 3.2 4.8 0.00 0.00 0.00 72
20260510002823 15 60 0.0 0.0 0.00 0.00 0.00 70
20260510002323 15 60 0.0 0.0 0.00 0.00 0.00 70
20260510001823 14 60 0.0 0.0 0.00 0.00 0.00 69
20260510001323 15 60 0.0 0.0 0.00 0.00 0.00 69
20260510000823 15 60 0.0 0.0 0.00 0.00 0.00 69
20260510000323 15 60 0.0 0.0 0.00 0.00 0.00 69
20260509235823 15 60 0.0 0.0 0.00 0.00 0.00 69
20260509235323 16 60 0.0 0.0 0.00 0.00 0.00 70
20260509234823 16 60 0.0 0.0 0.00 0.00 0.00 70
20260509234323 15 60 0.0 0.0 0.00 0.00 0.00 71
20260509233823 15 60 0.0 16.1 0.00 0.03 0.00 72
20260509233323 15 185 0.0 0.0 0.00 0.03 0.00 71
20260509232823 14 185 0.0 0.0 0.00 0.03 0.00 71
20260509232323 14 185 0.0 0.0 0.00 0.03 0.00 71
20260509231823 15 185 0.0 0.0 0.00 0.03 0.00 71
20260509231323 14 185 0.0 0.0 0.00 0.03 0.00 69
20260509230823 14 185 0.0 0.0 0.00 0.03 0.00 69
20260509230323 15 185 0.0 0.0 0.00 0.03 0.00 69
20260509225823 15 185 0.0 0.0 0.00 0.03 0.00 68
20260509225323 14 185 0.0 0.0 0.00 0.03 0.00 67
20260509224823 15 185 0.0 0.0 0.00 0.03 0.03 68
20260509224323 14 185 0.0 0.0 0.00 0.03 0.03 67
20260509223823 15 185 0.0 0.0 0.00 0.03 0.03 67
20260509223323 15 185 0.0 0.0 0.00 0.03 0.03 67
20260509222823 15 185 0.0 0.0 0.00 0.03 0.03 66
20260509222323 15 185 0.0 0.0 0.00 0.03 0.03 66
20260509221823 15 185 0.0 0.0 0.00 0.03 0.03 66
20260509221323 15 185 0.0 0.0 0.00 0.03 0.03 66
20260509220823 15 185 0.0 0.0 0.00 0.03 0.03 66
20260509220323 15 185 0.0 0.0 0.00 0.03 0.03 67
20260509215823 15 185 0.0 0.0 0.00 0.03 0.03 67
20260509215323 15 185 0.0 0.0 0.00 0.03 0.03 66
20260509214823 15 185 0.0 0.0 0.00 0.03 0.03 66
20260509214323 15 185 0.0 0.0 0.00 0.03 0.03 67
20260509213823 15 185 0.0 0.0 0.00 0.03 0.03 67
20260509213323 15 185 0.0 0.0 0.00 0.03 0.03 67
20260509212823 15 185 0.0 0.0 0.00 0.03 0.03 65
20260509212323 15 185 0.0 0.0 0.00 0.03 0.03 65
20260509211823 15 185 0.0 0.0 0.00 0.03 0.03 64
20260509211323 15 185 0.0 0.0 0.00 0.03 0.03 64
20260509210823 15 185 0.0 0.0 0.00 0.03 0.03 63
20260509210323 15 185 0.0 0.0 0.00 0.03 0.03 63
20260509205823 15 185 0.0 0.0 0.00 0.03 0.03 62
20260509205323 15 185 0.0 0.0 0.00 0.03 0.03 62
20260509204823 15 185 0.0 0.0 0.00 0.03 0.03 62
20260509204323 15 185 0.0 0.0 0.00 0.03 0.03 61
20260509203823 15 185 0.0 0.0 0.00 0.03 0.03 62
20260509203323 15 185 0.0 0.0 0.00 0.03 0.03 61
20260509202823 16 185 0.0 0.0 0.00 0.03 0.03 60
20260509202323 16 185 0.0 0.0 0.00 0.03 0.03 60
20260509201823 16 185 0.0 0.0 0.00 0.03 0.03 58
20260509201323 17 185 0.0 0.0 0.00 0.03 0.03 59
20260509200823 16 185 0.0 0.0 0.00 0.03 0.03 58
20260509200323 16 185 0.0 0.0 0.00 0.03 0.03 58
20260509195823 17 185 0.0 0.0 0.00 0.03 0.03 58
20260509195323 17 185 0.0 0.0 0.00 0.03 0.03 56
20260509194823 17 185 0.0 0.0 0.00 0.03 0.03 55
20260509194323 18 185 0.0 0.0 0.00 0.03 0.03 55
20260509193823 18 185 0.0 0.0 0.00 0.03 0.03 56
20260509193323 18 185 0.0 0.0 0.00 0.03 0.03 52
20260509192823 19 185 0.0 0.0 0.00 0.03 0.03 52
20260509192323 19 185 0.0 0.0 0.00 0.03 0.03 51
20260509191823 20 185 0.0 0.0 0.00 0.03 0.03 49
20260509191323 20 185 0.0 0.0 0.00 0.03 0.03 49
20260509190823 20 185 0.0 0.0 0.00 0.03 0.03 47
20260509190323 21 185 0.0 0.0 0.00 0.03 0.03 46
20260509185823 21 185 0.0 0.0 0.00 0.03 0.03 45
20260509185323 21 185 0.0 0.0 0.00 0.03 0.03 44
20260509184823 22 185 0.0 0.0 0.00 0.03 0.03 44
20260509184323 22 147 0.0 0.0 0.00 0.03 0.03 43
20260509183823 22 184 0.0 1.6 0.00 0.03 0.03 42
20260509183323 22 213 0.0 6.4 0.00 0.03 0.03 41
20260509182823 22 253 1.6 3.2 0.00 0.03 0.03 41
20260509182323 22 157 0.0 3.2 0.00 0.03 0.03 40
20260509181823 22 144 1.6 1.6 0.00 0.03 0.03 39
20260509181323 23 181 0.0 0.0 0.00 0.03 0.03 39
20260509180823 23 181 0.0 1.6 0.00 0.03 0.03 38
20260509180323 23 196 0.0 6.4 0.00 0.03 0.03 38
20260509175823 24 171 1.6 6.4 0.00 0.03 0.03 37
20260509175323 24 225 0.0 8.0 0.00 0.03 0.03 37
20260509174823 24 244 8.0 9.7 0.00 0.03 0.03 36
20260509174323 24 164 1.6 3.2 0.00 0.03 0.03 36
20260509173823 24 150 0.0 4.8 0.00 0.03 0.03 35
20260509173323 25 217 0.0 6.4 0.00 0.03 0.03 34
20260509172823 25 130 0.0 4.8 0.00 0.03 0.03 33
20260509172323 25 160 0.0 4.8 0.00 0.03 0.03 32
20260509171823 26 136 4.8 6.4 0.00 0.03 0.03 30
20260509171323 26 175 4.8 11.3 0.00 0.03 0.03 29
20260509170823 27 187 1.6 8.0 0.00 0.03 0.03 28
20260509170323 28 133 6.4 8.0 0.00 0.03 0.03 27
20260509165823 28 63 6.4 8.0 0.00 0.03 0.03 26
20260509165323 28 123 8.0 11.3 0.00 0.03 0.03 25
20260509164823 29 164 4.8 12.9 0.00 0.03 0.03 24
20260509164323 30 135 9.7 14.5 0.00 0.03 0.03 23
20260509163823 30 150 9.7 11.3 0.00 0.03 0.03 23
20260509163324 30 116 6.4 9.7 0.00 0.03 0.03 23
20260509162824 30 101 6.4 11.3 0.00 0.03 0.03 23
20260509162323 31 113 6.4 12.9 0.00 0.03 0.03 22
20260509161824 31 77 0.0 9.7 0.00 0.03 0.03 21
20260509161324 31 68 4.8 12.9 0.00 0.03 0.03 21
20260509160823 31 229 1.6 9.7 0.00 0.03 0.03 20
20260509160323 32 182 6.4 12.9 0.00 0.03 0.03 19
20260509155824 32 71 1.6 9.7 0.00 0.03 0.03 20
20260509155324 32 142 1.6 8.0 0.00 0.03 0.03 20
20260509154824 32 64 0.0 8.0 0.00 0.03 0.03 20
20260509154324 32 102 3.2 14.5 0.00 0.03 0.03 20
20260509153824 33 170 4.8 9.7 0.00 0.03 0.03 20
20260509153324 33 116 3.2 9.7 0.00 0.03 0.03 20
20260509152824 32 150 4.8 11.3 0.00 0.03 0.03 19
20260509152324 33 177 8.0 14.5 0.00 0.03 0.03 20
20260509151824 33 151 9.7 12.9 0.00 0.03 0.03 19
20260509151324 32 246 1.6 6.4 0.00 0.03 0.03 20
20260509150824 31 187 1.6 11.3 0.00 0.03 0.03 21
20260509150324 31 106 4.8 12.9 0.00 0.03 0.03 21
20260509145824 31 160 3.2 14.5 0.00 0.03 0.03 21
20260509145324 32 118 11.3 12.9 0.00 0.03 0.03 20
20260509144824 33 126 8.0 12.9 0.00 0.03 0.03 19
20260509144324 33 95 6.4 14.5 0.00 0.03 0.03 18
20260509143824 32 92 11.3 11.3 0.00 0.03 0.03 21
20260509143324 31 118 8.0 8.0 0.00 0.03 0.03 23
20260509142824 30 109 4.8 11.3 0.00 0.03 0.03 26
20260509142324 28 75 6.4 12.9 0.00 0.03 0.03 27
20260509141824 29 80 6.4 11.3 0.00 0.03 0.03 26
20260509141328 30 67 1.6 9.7 0.00 0.03 0.03 24
20260509140824 32 181 3.2 12.9 0.00 0.03 0.03 21
20260509140324 33 60 3.2 17.7 0.00 0.03 0.03 20
20260509135824 33 167 8.0 14.5 0.00 0.03 0.03 20
20260509135324 33 59 1.6 14.5 0.00 0.03 0.03 20
20260509134824 32 182 6.4 12.9 0.00 0.03 0.03 21
20260509134324 32 125 6.4 14.5 0.00 0.03 0.03 22
20260509133824 32 78 8.0 12.9 0.00 0.03 0.03 21
20260509133324 32 185 4.8 11.3 0.00 0.03 0.03 22
20260509132824 31 196 4.8 11.3 0.00 0.03 0.03 22
20260509132324 33 205 6.4 8.0 0.00 0.03 0.03 19
20260509131824 34 129 1.6 14.5 0.00 0.03 0.03 20
20260509131324 33 174 9.7 9.7 0.00 0.03 0.03 20
20260509130824 33 102 1.6 12.9 0.00 0.03 0.03 20
20260509130324 33 164 9.7 12.9 0.00 0.03 0.03 20
20260509125824 33 220 4.8 14.5 0.00 0.03 0.03 20
20260509125324 33 209 6.4 12.9 0.00 0.03 0.03 19
20260509124824 34 115 9.7 14.5 0.00 0.03 0.03 20
20260509124324 33 101 4.8 11.3 0.00 0.03 0.03 20
20260509123824 33 158 3.2 9.7 0.00 0.03 0.03 20
20260509123324 33 227 0.0 9.7 0.00 0.03 0.03 21
20260509122824 33 168 6.4 8.0 0.00 0.03 0.03 22
20260509122324 32 188 1.6 12.9 0.00 0.03 0.03 23
20260509121824 32 11 1.6 9.7 0.00 0.03 0.03 22
20260509121324 32 84 1.6 9.7 0.00 0.03 0.03 22
20260509120824 31 54 3.2 12.9 0.00 0.03 0.03 23
20260509120324 31 143 6.4 9.7 0.00 0.03 0.03 24
20260509115824 31 54 0.0 11.3 0.00 0.03 0.03 25
20260509115324 31 80 1.6 12.9 0.00 0.03 0.03 25
20260509114824 31 52 0.0 12.9 0.00 0.03 0.03 24
20260509114324 31 67 3.2 9.7 0.00 0.03 0.03 27
20260509113824 31 144 9.7 16.1 0.00 0.03 0.03 27
20260509113324 30 171 6.4 11.3 0.00 0.03 0.03 27
20260509112824 30 106 3.2 12.9 0.00 0.03 0.03 28
20260509112324 30 139 6.4 12.9 0.00 0.03 0.03 28
20260509111824 30 164 12.9 12.9 0.00 0.03 0.03 27
20260509111324 30 142 1.6 12.9 0.00 0.03 0.03 28
20260509110824 30 99 4.8 9.7 0.00 0.03 0.03 27
20260509110324 30 71 3.2 9.7 0.00 0.03 0.03 29
20260509105824 30 35 0.0 11.3 0.00 0.03 0.03 28
20260509105324 30 40 0.0 9.7 0.00 0.03 0.03 30
20260509104824 29 60 3.2 9.7 0.00 0.03 0.03 30
20260509104324 28 47 0.0 11.3 0.00 0.03 0.03 31
20260509103824 29 80 8.0 11.3 0.00 0.03 0.03 31
20260509103324 28 8 0.0 8.0 0.00 0.03 0.03 31
20260509102824 28 74 3.2 9.7 0.00 0.03 0.03 31
20260509102324 28 97 8.0 11.3 0.00 0.03 0.03 32
20260509101824 28 157 1.6 4.8 0.00 0.03 0.03 33
20260509101324 28 143 0.0 8.0 0.00 0.03 0.03 34
20260509100824 27 163 4.8 6.4 0.00 0.03 0.03 36
20260509100324 27 257 0.0 3.2 0.00 0.03 0.03 37
20260509095824 27 230 0.0 4.8 0.00 0.03 0.03 37
20260509095324 26 272 0.0 11.3 0.00 0.03 0.03 37
20260509094824 26 234 8.0 8.0 0.00 0.03 0.03 38
20260509094324 26 77 0.0 1.6 0.00 0.03 0.03 37
20260509093824 26 98 0.0 6.4 0.00 0.03 0.03 39
20260509093324 26 265 0.0 8.0 0.00 0.03 0.03 40
20260509092824 25 61 0.0 4.8 0.00 0.03 0.03 42
20260509092326 24 247 0.0 0.0 0.00 0.03 0.03 44
20260509092324 24 247 0.0 0.0 0.00 0.03 0.03 44
20260509091824 23 247 0.0 4.8 0.00 0.03 0.03 43
20260509091324 23 250 3.2 3.2 0.00 0.03 0.03 45
20260509090824 22 164 0.0 8.0 0.00 0.03 0.03 45
20260509090324 22 210 3.2 8.0 0.00 0.03 0.03 46
20260509085824 22 153 0.0 6.4 0.00 0.03 0.03 46
20260509085324 22 268 0.0 8.0 0.00 0.03 0.03 46
20260509084824 21 35 0.0 6.4 0.00 0.03 0.03 47
20260509084324 21 71 3.2 8.0 0.00 0.03 0.03 48
20260509083824 20 272 1.6 6.4 0.00 0.03 0.03 49
20260509083324 20 240 1.6 9.7 0.00 0.03 0.03 49
20260509082824 20 232 3.2 12.9 0.00 0.03 0.03 51
20260509082324 20 157 1.6 6.4 0.00 0.03 0.03 52
20260509081824 20 147 3.2 8.0 0.00 0.03 0.03 52
20260509081324 19 239 3.2 8.0 0.00 0.03 0.03 53
20260509080824 20 177 3.2 6.4 0.00 0.03 0.03 54
20260509080324 19 87 3.2 6.4 0.00 0.03 0.03 56
20260509075824 19 194 0.0 11.3 0.00 0.03 0.03 57
20260509075324 18 120 0.0 4.8 0.00 0.03 0.03 58
20260509074824 18 84 0.0 6.4 0.00 0.03 0.03 59
20260509074324 18 68 0.0 6.4 0.00 0.03 0.03 59
20260509073824 18 99 1.6 6.4 0.00 0.03 0.03 60
20260509073324 17 42 0.0 6.4 0.00 0.03 0.03 61
20260509072824 17 71 0.0 3.2 0.00 0.03 0.03 62
20260509072324 17 101 0.0 6.4 0.00 0.03 0.03 63
20260509071824 16 75 3.2 4.8 0.00 0.03 0.03 63
20260509071324 16 59 3.2 6.4 0.00 0.03 0.03 64
20260509070824 16 88 0.0 8.0 0.00 0.03 0.03 64
20260509070324 15 91 1.6 6.4 0.00 0.03 0.03 66
20260509065824 15 109 3.2 6.4 0.00 0.03 0.03 67
20260509065324 15 267 0.0 4.8 0.00 0.03 0.03 67
20260509064824 15 49 1.6 6.4 0.00 0.03 0.03 67
20260509064324 14 66 4.8 6.4 0.00 0.03 0.03 68
20260509063824 13 88 1.6 8.0 0.00 0.03 0.03 68
20260509063324 13 111 0.0 8.0 0.00 0.03 0.03 69
20260509062824 12 123 0.0 6.4 0.00 0.03 0.03 69
20260509062324 13 80 4.8 8.0 0.00 0.03 0.03 70
20260509061824 13 94 4.8 6.4 0.00 0.03 0.03 70
20260509061324 12 42 3.2 6.4 0.00 0.03 0.03 71
20260509060824 12 97 0.0 8.0 0.00 0.03 0.03 71
20260509060324 12 52 3.2 6.4 0.00 0.03 0.03 72
20260509055824 12 85 1.6 8.0 0.00 0.03 0.03 72
20260509055324 12 313 0.0 8.0 0.00 0.03 0.03 73
20260509054824 12 85 3.2 11.3 0.00 0.03 0.03 74
20260509054324 12 77 1.6 6.4 0.00 0.03 0.03 74
20260509053824 11 324 0.0 6.4 0.00 0.03 0.03 75
20260509053324 11 14 0.0 8.0 0.00 0.03 0.03 75
20260509052825 11 25 0.0 1.6 0.00 0.03 0.03 76
20260509052324 11 23 0.0 4.8 0.00 0.03 0.03 76
20260509051824 10 67 4.8 4.8 0.00 0.03 0.03 77
20260509051325 10 73 0.0 0.0 0.00 0.03 0.03 77
20260509050825 10 73 0.0 0.0 0.00 0.03 0.03 76
20260509050325 10 73 0.0 1.6 0.00 0.03 0.03 76
20260509045825 10 70 0.0 0.0 0.00 0.03 0.03 76
20260509045325 10 70 0.0 4.8 0.00 0.03 0.03 76
20260509044825 10 327 0.0 4.8 0.00 0.03 0.03 76
20260509044325 10 16 0.0 6.4 0.00 0.03 0.03 76
20260509043825 10 19 0.0 0.0 0.00 0.03 0.03 75
20260509043325 10 19 0.0 0.0 0.00 0.03 0.03 75
20260509042825 10 19 0.0 0.0 0.00 0.03 0.03 75
20260509042325 10 19 0.0 3.2 0.00 0.03 0.03 75
20260509041825 10 49 0.0 4.8 0.00 0.03 0.03 74
20260509041325 10 11 0.0 3.2 0.00 0.03 0.03 74
20260509040825 10 85 1.6 3.2 0.00 0.03 0.03 74
20260509040325 10 15 0.0 4.8 0.00 0.03 0.03 74
20260509035825 10 67 0.0 3.2 0.00 0.03 0.03 73
20260509035325 11 42 1.6 6.4 0.00 0.03 0.03 73
20260509034825 11 73 3.2 6.4 0.00 0.03 0.03 73
20260509034325 11 46 4.8 8.0 0.00 0.03 0.03 73
20260509033825 11 22 1.6 6.4 0.00 0.03 0.03 72
20260509033325 11 64 0.0 4.8 0.00 0.03 0.03 72
20260509032825 11 109 3.2 3.2 0.00 0.03 0.03 72
20260509032325 11 97 3.2 6.4 0.00 0.03 0.03 71
20260509031825 11 45 0.0 8.0 0.00 0.03 0.03 71
20260509031325 11 28 0.0 4.8 0.00 0.03 0.03 70
20260509030825 11 50 1.6 6.4 0.00 0.03 0.03 70
20260509030325 11 122 1.6 8.0 0.00 0.03 0.03 70
20260509025825 11 84 4.8 6.4 0.00 0.03 0.03 70
20260509025325 11 108 1.6 9.7 0.00 0.03 0.03 70
20260509024825 11 73 6.4 6.4 0.00 0.03 0.03 70
20260509024325 11 70 0.0 11.3 0.00 0.03 0.03 70
20260509023825 11 77 9.7 9.7 0.00 0.03 0.03 70
20260509023325 11 64 3.2 4.8 0.00 0.03 0.03 69
20260509022825 11 40 0.0 6.4 0.00 0.03 0.03 69
20260509022325 11 78 4.8 8.0 0.00 0.03 0.03 69
20260509021825 12 92 0.0 4.8 0.00 0.03 0.03 69
20260509021325 11 21 0.0 8.0 0.00 0.03 0.03 69
20260509020825 11 84 0.0 4.8 0.00 0.03 0.03 69
20260509020325 11 82 4.8 8.0 0.00 0.03 0.03 69